Regional Weather Roundup
Issued by NWS

Home | Current Version | Previous Version | Text Only | Print | Product List | Glossary On
Versions: 1 2 3 4 5 6 7 8 9 10 11 12 13 14 15 16 17 18 19 20 21 22 23 24 25 26 27 28 29 30 31 32 33 34 35 36 37 38 39 40 41 42 43 44 45 46 47 48 49 50
000
ASUS45 KABQ 040210
RWRNM
NEW MEXICO REGIONAL WEATHER ROUNDUP
NATIONAL WEATHER SERVICE ALBUQUERQUE NM
800 PM MDT MON AUG 03 2015

NOTE: "FAIR" MEANS FEW OR NO CLOUDS BELOW 12,000 FEET AGL WITH NO
       SIGNIFICANT WEATHER OR OBSTRUCTIONS TO VISION.

      THIS PRODUCT IS RELEASED AS TWO VERSIONS.  ONE VERSION NEAR
      THE TOP OF THE HOUR CONTAINING PRELIMINARY DATA FROM ALBUQUERQUE
      AND OTHER STATIONS.  A FINAL VERSION WITH ADDITIONAL DATA IS
      ISSUED ABOUT 10 MINUTES AFTER THE HOUR.

NMZ501-503-504-510>518-040300-
NORTHWEST PLATEAU/NORTHCENTRAL MOUNTAINS

CITY           SKY/WX    TMP DP  RH WIND       PRES   REMARKS
FARMINGTON     CLEAR     81  40  23 NW9       30.09R
LOS ALAMOS     PTCLDY    73  44  34 NW8       30.23S
SANTA FE       CLEAR     77  45  32 NW9       30.14R
TAOS           PTCLDY    73  46  38 N10       30.20R
ANGEL FIRE     MOCLDY    63  45  50 W8        30.30R

$$
NMZ402-403-502-505>509-040300-
WESTCENTRAL MOUNTAINS/SOUTHWEST MOUNTAINS

CITY           SKY/WX    TMP DP  RH WIND       PRES   REMARKS
GALLUP         CLEAR     78  50  37 NE6       30.17S
GRANTS         CLEAR     74  47  38 N5        30.20S

$$
NMZ407-409-411-412-040300-
SOUTHERN DESERTS

CITY           SKY/WX    TMP DP  RH WIND       PRES   REMARKS
LORDSBURG      FAIR      91  41  17 W12       29.99S
DEMING         MOCLDY    86  50  28 S9        30.02R
LAS CRUCES     MOCLDY    85  53  34 SW8       30.03R
HOLLOMAN AFB     N/A     91  50  24 SW8       29.96R
ALAMOGORDO     PTCLDY    90  46  22 W8        29.98R
T OR C         PTCLDY    88  53  30 S8        30.03R

$$
NMZ519>523-040300-
CENTRAL VALLEYS/CENTRAL HIGHLANDS

CITY           SKY/WX    TMP DP  RH WIND       PRES   REMARKS
ALBUQUERQUE    PTCLDY    86  41  20 NW12      30.08S
DOUBLE EAGLE   PTCLDY    79  46  31 NW8       30.14R
MORIARTY ARPT    N/A     75  43  32 W9        30.15R
CLINES CORNERS CLEAR     72  46  39 W12       30.19R
BELEN          FAIR      84  39  20 N7        30.07S
SOCORRO        FAIR      85  44  23 N3        30.04R

$$
NMZ524>526-539-540-040300-
SOUTHCENTRAL MOUNTAINS

CITY           SKY/WX    TMP DP  RH WIND       PRES   REMARKS
RUIDOSO        NOT AVBL

$$
NMZ527>531-040300-
NORTHEAST HIGHLANDS/NORTHEAST PLAINS

CITY           SKY/WX    TMP DP  RH WIND       PRES   REMARKS
RATON          LGT RAIN  70  61  73 NE13      30.10R
CLAYTON        LGT RAIN  68  58  70 SW5       30.04F

$$
NMZ532>537-040300-
EASTCENTRAL PLAINS

CITY           SKY/WX    TMP DP  RH WIND       PRES   REMARKS
TUCUMCARI      PTCLDY    81  64  56 S15       29.95R
CANNON AFB     MOCLDY    74  64  69 S6        30.00S
CLOVIS AIRPORT MOCLDY    73  59  60 S8        30.01S

$$
NMZ028-029-538-040300-
SOUTHEAST PLAINS

CITY           SKY/WX    TMP DP  RH WIND       PRES   REMARKS
ROSWELL        MOCLDY    79  63  57 S8        29.97R
CARLSBAD       CLOUDY    78  62  57 SW8       29.96F
HOBBS            N/A    N/A N/A N/A MISG        N/A


$$


USA.gov is the U.S. government's official web portal to all federal, state and local government web resources and services.